Location: Brentwood
(41.6478°N, 81.3748°W)
Time: 05:44:21
(UTC+00:00)

Daily predictions for brighter satellites

Satellite Brightness Start Highest point End
(mag) Time Altitude Azimuth Time Altitude Azimuth Time Altitude Azimuth
Cosmos 1110 Rocket 4.0 00:23:27 10° SSW 00:28:37 87° ESE 00:33:49 10° NNE
SJ-6B 3.0 00:25:41 10° SSE 00:29:30 52° ENE 00:33:22 10° N
OAO 3 Rocket 4.0 00:26:23 10° WSW 00:30:51 37° S 00:35:21 10° ESE
NOSS 2-2 (D) 2.7 00:29:51 10° SSW 00:33:16 78° SE 00:36:23 10° NE
Cosmos 1408 4.2 00:30:33 10° NNW 00:33:24 32° W 00:36:12 10° SSW
DELTA 2 R/B (1) 4.1 00:28:17 10° W 00:33:44 54° SSW 00:39:10 10° ESE
Cosmos 1378 Rocket 3.7 00:31:45 10° N 00:36:05 81° W 00:40:21 10° S
NOSS 2-3 (E) 3.4 00:33:08 10° SW 00:36:46 76° NW 00:40:42 10° NNE
PAYLOAD B 4.3 00:31:25 10° SSE 00:36:51 64° ENE 00:42:22 10° N
Cosmos 2221 Rocket 3.6 00:33:30 10° N 00:38:04 85° E 00:42:37 10° S
Nadezhda 1 Rocket 4.3 00:32:21 10° SSW 00:38:23 72° W 00:44:29 10° N
Cosmos 1782 Rocket 4.4 00:35:10 10° SSE 00:38:57 30° E 00:42:48 10° NNE
Landsat 7 4.3 00:36:01 10° S 00:40:41 64° W 00:45:22 10° NNW
Cosmos 1892 2.7 00:38:23 10° N 00:41:53 51° E 00:45:21 10° SSE
Cosmos 1741 Rocket 4.0 00:36:37 10° NNW 00:41:54 85° ENE 00:47:09 10° SSE
ATLAS 5 CENTAUR R/B 2.8 00:41:29 10° SE 00:42:47 12° ESE 00:44:04 10° E
Cosmos 1242 Rocket 3.9 00:40:17 10° NNW 00:43:02 34° W 00:45:46 10° SSW
Cosmos 1461 4.2 00:39:43 10° SW 00:43:42 43° NW 00:47:35 10° NNE
Cosmos 1908 Rocket 3.5 00:41:18 10° S 00:45:35 72° E 00:49:54 10° NNE
Cosmos 968 Rocket 3.5 00:40:45 10° NNW 00:45:49 62° ENE 00:50:53 10° SSE
USA 186 2.3 00:44:11 10° SE 00:47:04 37° ENE 00:49:54 10° N
SL-4 R/B 3.4 00:45:05 10° W 00:48:29 32° NNW 00:51:43 10° NE
CZ-4 R/B 1.3 00:45:19 10° SSE 00:49:17 81° ENE 00:53:12 10° N
Feng Yun 1-1 Rocket 4.4 00:47:29 10° SSE 00:52:48 55° ENE 00:58:16 10° N
USA 129 3.0 00:52:26 10° NE 00:54:26 20° E 00:54:47 19° ESE
Cosmos 1455 2.1 00:51:11 10° S 00:54:38 50° E 00:58:06 10° NNE
Meteor 1-16 Rocket 4.3 00:49:58 10° S 00:55:40 84° WNW 01:01:12 10° N
USA 267 4.5 00:52:42 10° NE 00:58:46 42° NNW 01:04:50 10° W
CSL-04 Debris 4.3 00:53:57 10° SSE 00:59:14 56° ENE 01:04:34 10° N
Timation 1 Rocket 4.3 00:56:26 10° NNW 01:02:25 78° ENE 01:08:22 10° SSE
CZ-4B R/B 4.2 00:59:30 10° S 01:03:04 38° W 01:06:29 10° NNW
Cosmos 1953 2.3 00:59:32 10° S 01:03:20 81° W 01:07:10 10° N
Cosmos 1300 Rocket 3.8 01:01:16 10° SSE 01:05:24 46° E 01:09:37 10° NNE
Cosmos 2297 4.5 01:02:15 10° SW 01:07:47 57° WNW 01:13:25 10° NNE
CSL-04 Rocket 3.8 01:04:16 10° SSE 01:09:44 64° ENE 01:15:10 10° N
Cosmos 2181 Rocket 3.9 01:05:09 10° S 01:11:13 67° E 01:17:25 10° NNE
MOS 1-B 4.3 01:08:10 10° SSE 01:13:58 81° ENE 01:19:48 10° NNW
SJ 16-02 1.3 01:09:49 10° N 01:14:07 60° ENE 01:17:18 17° SSE
DELTA 2 DEB (DPAF) 3.9 01:09:58 10° NNE 01:14:13 87° ESE 01:18:26 10° SSW
NOSS 3-1 (A) 4.0 01:11:58 10° SSE 01:15:40 22° ESE 01:19:45 10° ENE
Cosmos 2369 Rocket 2.7 01:11:31 10° SW 01:17:09 65° WNW 01:22:48 10° NNE
SL-8 Rocket 4.0 01:11:45 10° N 01:17:59 88° W 01:24:08 10° S
CZ-4C R/B 3.6 01:17:16 10° NNE 01:20:26 33° E 01:21:32 26° SE
Cosmos 1992 Rocket 4.1 01:16:22 10° S 01:21:23 52° ESE 01:26:27 10° NNE
SPOT 1/Viking Rocket 4.2 01:19:41 10° S 01:24:47 58° W 01:29:57 10° NNW
Cosmos 2263 4.4 01:20:23 10° SSW 01:26:00 75° WNW 01:31:38 10° NNE
Cosmos 2098 Rocket 3.4 01:20:49 10° S 01:26:14 59° E 01:30:42 10° NNE
Cosmos 2341 Rocket 4.4 01:22:55 10° NNW 01:29:10 67° W 01:35:19 10° S
Cosmos 1825 3.3 01:26:45 10° NNW 01:30:00 39° W 01:33:13 10° SSW
CZ-4B R/B 3.7 01:24:33 10° S 01:30:09 62° WSW 01:35:44 10° NNW
Okean-O 2.9 01:28:34 26° SE 01:30:43 48° ENE 01:34:58 10° N
PSLV R/B 3.8 01:28:19 14° S 01:31:21 73° WSW 01:35:05 10° NNW
Terra 3.5 01:30:44 16° ENE 01:31:29 17° ENE 01:34:28 10° NNE
USA 234 3.6 01:28:21 16° SSE 01:33:40 61° SW 01:40:08 10° NW
Cosmos 1833 4.1 01:28:55 10° NNW 01:34:35 72° ENE 01:37:59 25° SE
NOSS 3-1 (C) 2.8 01:33:57 10° SSW 01:38:42 82° ESE 01:44:21 10° NE
Hubble Space Telescope 3.0 01:40:29 10° SSW 01:41:39 12° S 01:41:39 12° S
Ariane Rocket 4.2 01:47:05 23° ENE 01:47:46 24° ENE 01:51:44 10° NNE
Cosmos 1025 Rocket 4.5 01:46:26 10° NNW 01:50:27 37° W 01:54:27 10° SSW
Okean O Rocket 2.5 01:49:28 13° S 01:53:12 47° W 01:57:24 10° NNW
Nadezhda 3 Rocket 3.9 01:49:58 15° S 01:55:05 67° E 02:01:13 10° NNE
Cosmos 1486 Rocket 4.3 01:53:23 10° N 01:58:26 48° ENE 01:59:33 41° ESE
Resurs 01 Rocket 2.8 01:55:01 11° SSW 01:58:55 40° W 02:03:05 10° NNW
ATLAS 3B R/B 2.7 01:53:18 10° SSW 02:00:10 66° ESE 02:07:34 10° NE
Cosmos 1975 Rocket 3.7 01:58:25 10° NNW 02:02:38 51° W 02:05:11 22° SSW
USA 281 3.4 01:59:34 22° SSE 02:04:00 71° WSW 02:10:35 10° NNW
Cosmos 1821 Rocket 4.0 01:58:14 10° N 02:04:26 79° W 02:08:32 22° S
Iridium 4 Rocket 4.0 02:09:52 43° E 02:10:10 43° E 02:15:28 10° NNE
SL-27 R/B 3.6 02:08:36 10° NNW 02:10:18 31° NNW 02:10:18 31° NNW
OAO 3 Rocket 4.2 02:09:20 10° WSW 02:13:29 33° SSW 02:13:29 33° SSW
SPOT 5 3.1 02:24:44 51° S 02:26:06 81° WSW 02:31:28 10° NNW
ATLAS 5 CENTAUR R/B 2.2 02:22:59 10° WSW 02:26:09 39° NW 02:29:36 10° NNE
SL-4 R/B 4.2 02:25:46 10° NW 02:28:05 16° N 02:29:13 14° NNE
Cosmos 1536 Rocket 3.7 02:24:07 10° N 02:28:03 67° NNE 02:28:03 67° NNE
Cosmos 2151 Rocket 3.5 02:28:54 83° WNW 02:28:54 83° WNW 02:33:16 10° N
Cosmos 2227 Rocket 4.0 02:26:59 10° N 02:30:35 17° NE 02:31:09 17° NE
ERS-1 Rocket 2.8 02:36:16 83° E 02:36:20 83° ENE 02:41:23 10° NNW
Cosmos 1339 Rocket 4.4 02:38:58 48° S 02:40:50 87° W 02:46:59 10° N
CZ-4C R/B 4.3 02:42:37 10° NNW 02:48:28 27° NE 02:51:18 22° ENE
Cosmos 1934 Rocket 3.9 02:44:19 10° N 02:50:29 81° W 02:51:27 65° SSW
Cosmos 1777 Rocket 4.2 02:46:14 10° NNW 02:50:58 65° NNE 02:50:58 65° NNE
SJ 16-02 4.1 02:50:28 10° WNW 02:51:53 11° W 02:53:18 10° WSW
Okean 2 Rocket 3.8 02:52:04 49° W 02:52:11 49° WNW 02:56:34 10° N
Alouette 2 Rocket 4.3 02:44:22 10° NNW 02:52:19 90° WSW 02:52:47 78° S
Cosmos 371 Rocket 3.8 02:54:38 10° NNW 02:58:28 57° NNW 02:58:28 57° NNW
Cosmos 2297 Rocket 2.8 02:54:48 10° NNW 02:59:36 44° NE 02:59:36 44° NE
COSMOS 2455 3.8 02:55:28 10° NNW 03:00:56 35° NE 03:00:56 35° NE
Cosmos 1354 Rocket 4.2 02:56:42 10° NNW 03:01:18 66° N 03:01:18 66° N
Cosmos 1503 Rocket 4.2 02:56:53 10° NNW 03:01:49 70° WNW 03:01:49 70° WNW
NOSS 3-1 (A) 3.9 03:01:09 10° WSW 03:05:54 47° NW 03:11:32 10° NNE
Spot 2 Rocket 3.9 03:07:30 60° WNW 03:07:30 60° WNW 03:11:56 10° NNW
Terra 2.6 03:09:27 48° WNW 03:09:27 48° WNW 03:13:17 10° NNW
USA 229 DEB 4.3 03:16:02 39° NE 03:16:02 39° NE 03:20:08 10° NE
USA 229 4.3 03:16:14 38° NE 03:16:14 38° NE 03:20:17 10° NE
CENTAUR R/B 4.5 03:18:00 10° NNW 03:24:58 30° NE 03:28:19 24° ENE
Ariane Rocket 4.1 03:27:13 39° WNW 03:27:13 39° WNW 03:31:12 10° NNW
Cosmos 1656 4.3 03:29:29 53° NNW 03:29:29 53° NNW 03:34:04 10° NNE
Cosmos 2263 Rocket 4.1 03:30:44 10° N 03:34:00 19° NE 03:34:00 19° NE
ATLAS 3B R/B 4.3 03:45:07 10° WSW 03:51:29 33° NW 03:58:14 10° NNE
Cosmos 2227 Rocket 3.5 04:09:40 10° NNW 04:12:58 36° NNW 04:12:58 36° NNW
Cosmos 1980 Rocket 4.2 04:21:02 20° NNE 04:21:02 20° NNE 04:22:41 10° NNE
Cosmos 1697 Rocket 4.2 04:30:32 32° N 04:30:32 32° N 04:33:43 10° NNE
CZ-4C R/B 3.3 04:30:22 10° NW 04:36:24 65° NNW 04:36:24 65° NNW
Cosmos 2297 Rocket 4.4 04:39:26 10° NW 04:41:24 18° WNW 04:41:24 18° WNW
CENTAUR R/B 3.4 05:08:16 10° NW 05:15:26 69° NNW 05:15:26 69° NNW
Cosmos 2263 Rocket 4.2 05:13:37 10° NNW 05:15:40 23° NNW 05:15:40 23° NNW
SL-16 R/B 4.1 05:40:46 24° NNE 05:40:46 24° NNE 05:42:59 10° NNE
NOSS 3-2 (C) 4.4 05:41:42 10° NNW 05:48:48 60° NE 05:48:48 60° NE
Cosmos 1980 Rocket 4.3 06:02:45 20° NW 06:02:45 20° NW 06:05:46 10° N
USA 267 3.9 06:04:36 50° NNE 06:04:36 50° NNE 06:10:38 10° NW
Cosmos 1844 Rocket 4.5 06:00:21 10° NNW 06:02:56 27° N 06:02:56 27° N
Lacrosse 5 3.8 06:42:19 26° NE 06:42:19 26° NE 06:44:31 10° NE
USA 238 DEB 4.0 06:41:10 10° NNW 06:48:03 73° NNE 06:48:03 73° NNE
USA 238 4.0 06:41:16 10° NNW 06:48:16 74° NNE 06:48:16 74° NNE
Resurs 1-4 Rocket 3.6 06:45:48 10° NNE 06:49:06 31° ENE 06:49:06 31° ENE
Cosmos 2333 Rocket 3.3 06:52:51 40° NNE 06:52:51 40° NNE 06:56:26 10° NNE
Cosmos 2360 Rocket 3.4 06:56:51 38° N 06:56:51 38° N 07:00:26 10° NNE
Cosmos 2322 Rocket 3.6 07:06:40 31° NNW 07:06:40 31° NNW 07:10:16 10° N
IDEFIX/ARIANE 42P 3.6 07:05:20 10° NNE 07:08:47 42° NNE 07:08:47 42° NNE
Cosmos 2219 Rocket 2.9 07:14:08 48° NNE 07:14:08 48° NNE 07:18:09 10° NNE
USA 215 4.2 07:08:04 10° NE 07:14:00 38° NNW 07:15:23 35° NW
SL-16 R/B 4.1 07:22:36 20° NW 07:22:36 20° NW 07:26:06 10° N
MSX 4.1 07:18:24 10° NNE 07:23:18 64° NNE 07:23:18 64° NNE
NOSS 3-4 (A) 3.9 07:26:04 48° NNW 07:26:04 48° NNW 07:30:58 10° NNE
NOSS 3-4 (C) 3.9 07:26:07 49° NNW 07:26:07 49° NNW 07:31:01 10° NNE
ADEOS II 2.5 07:32:11 10° NNE 07:36:45 59° ENE 07:36:45 59° ENE
FENGYUN 3A 4.0 07:36:36 10° NNE 07:41:48 61° E 07:41:48 61° E
Meteor 2-6 Rocket 4.4 07:45:26 70° NW 07:45:26 70° NW 07:50:54 10° N
Meteor 1-14 Rocket 4.5 07:41:45 10° NNW 07:46:15 60° NNW 07:46:15 60° NNW
CZ-2D R/B 2.5 07:45:03 10° N 07:49:32 57° NNW 07:49:32 57° NNW
SL-16 R/B 2.6 07:51:52 44° SE 07:53:54 73° ENE 08:00:06 10° N
Cosmos 2180 Rocket 4.4 07:47:39 10° N 07:54:03 77° W 07:54:09 77° WSW
Cosmos 1805 Rocket 4.4 07:58:26 10° N 08:02:36 44° ENE 08:02:57 43° E
UNK 4.4 08:02:06 45° ESE 08:02:55 51° ENE 08:07:23 10° N
Cosmos 1500 Rocket 4.1 07:58:50 10° N 08:03:03 56° ENE 08:03:03 56° ENE
Meteor 1-27 Rocket 4.1 08:04:14 46° SSE 08:05:43 60° E 08:11:21 10° NNE
IRAS Rocket 4.1 08:01:19 10° NNE 08:06:58 82° WNW 08:07:17 78° WSW
Cosmos 1943 Rocket 4.0 08:02:20 10° N 08:07:21 31° NE 08:12:21 10° ESE
COSMOS 2428 2.8 08:10:38 60° WNW 08:10:46 60° WNW 08:16:25 10° NNE
Meteor 1-10 Rocket 4.2 08:13:29 68° SW 08:14:05 74° W 08:20:03 10° N
Cosmos 1733 4.4 08:12:16 10° N 08:15:38 36° ENE 08:15:45 36° E
CZ-2C R/B 3.3 08:17:16 41° WNW 08:17:16 41° WNW 08:21:19 10° NNW
AQUA 4.0 08:11:41 10° N 08:15:55 60° NW 08:15:55 60° NW
Cosmos 2237 Rocket 2.4 08:16:42 48° SSE 08:18:02 63° ESE 08:23:40 10° NNE
BlueWalker 3 4.0 08:15:54 16° NNW 08:18:06 26° NNE 08:21:22 10° E
Cosmos 1980 3.8 08:18:03 52° S 08:19:18 69° ESE 08:24:56 10° NNE
Cosmos 1867 3.4 08:16:41 10° NNW 08:22:12 87° WSW 08:27:39 10° SSE
Meteor 1-11 Rocket 3.5 08:16:51 10° NNW 08:22:26 82° W 08:23:44 54° S
Lacrosse 5 3.7 08:21:30 19° NW 08:23:05 22° NNW 08:27:04 10° NNE
CZ-2C R/B 3.2 08:18:26 10° N 08:23:25 54° WNW 08:23:30 53° WNW
ALOS 2.1 08:19:09 10° NNE 08:23:48 85° WNW 08:23:56 83° SW
ATLAS 2AS CENTAUR R/B 4.0 08:19:52 18° SSE 08:24:37 35° ESE 08:31:02 10° NE
Cosmos 2322 4.4 08:26:12 36° WNW 08:26:40 37° WNW 08:31:57 10° N
Sich 1 2.9 08:23:50 10° N 08:28:05 86° E 08:28:05 86° E
Cosmos 1340 Rocket 4.2 08:28:57 27° SE 08:30:07 34° E 08:33:37 10° NNE
Resurs 1-4 Rocket 3.3 08:25:55 10° N 08:30:10 27° WNW 08:30:10 27° WNW
Meteor 2-9 Rocket 4.0 08:27:31 10° N 08:32:55 90° SW 08:35:52 29° S
Cosmos 1536 4.3 08:30:19 10° NNW 08:32:13 26° NNW 08:32:13 26° NNW
Cosmos 2344 4.2 08:26:42 10° NW 08:35:29 89° ENE 08:47:54 10° SSE
Cosmos 2333 Rocket 4.2 08:34:50 13° WNW 08:36:01 13° NW 08:38:43 10° NNW
Cosmos 1743 Rocket 3.3 08:33:03 10° N 08:37:22 78° W 08:37:38 74° SW
Cosmos 2195 Rocket 4.4 08:36:50 40° SSW 08:39:16 74° W 08:45:33 10° N
Cosmos 2360 Rocket 4.4 08:38:49 10° NW 08:40:06 11° NW 08:41:22 10° NNW
Nadezhda 4 Rocket 4.4 08:44:00 38° W 08:45:05 41° WNW 08:50:50 10° N
NOSS 2-2 (C) 4.3 08:43:06 10° NNW 08:47:42 70° NE 08:54:16 10° SE
IDEFIX/ARIANE 42P 4.4 08:46:30 10° NNW 08:49:26 15° WNW 08:49:33 15° WNW
Okean 1 4.3 08:50:16 31° NW 08:50:16 31° NW 08:52:57 10° N
GP-B 3.6 08:45:59 10° NNW 08:49:53 39° WNW 08:49:53 39° WNW
NOSS 0 Rocket 4.1 08:48:14 38° WSW 08:50:14 54° WNW 08:56:17 10° NNE
Cosmos 1680 Rocket 3.6 08:47:52 33° S 08:50:18 79° ESE 08:55:38 10° NNE
Cosmos 192 4.2 08:45:59 10° NNW 08:50:51 67° WSW 08:54:23 18° S
Cosmos 2278 Rocket 2.1 08:46:30 10° NNW 08:52:10 70° WSW 08:57:47 10° SSE
Cosmos 2219 Rocket 4.1 08:55:50 13° WNW 08:57:21 14° NW 09:00:20 10° NNW
Cosmos 1420 Rocket 4.4 08:55:03 10° NNW 09:00:16 64° ENE 09:05:30 10° SSE
BREEZE-M DEB (TANK) 4.4 09:00:45 35° WSW 09:02:59 88° SSE 09:18:26 10° ENE
Meteor 2-10 4.3 08:57:37 10° NNW 09:03:07 56° W 09:07:23 17° SSW
Cosmos 1461 2.5 08:59:54 10° NW 09:03:42 65° WSW 09:07:27 10° SSE
Cosmos 2056 Rocket 4.2 08:58:50 10° NNW 09:04:10 59° ENE 09:09:30 10° SSE
RESURS DK-1 3.7 09:04:22 24° WNW 09:04:42 24° NW 09:08:05 10° N
Gbstr 26 Del rocket 4.5 09:02:52 18° WNW 09:04:45 25° NNW 09:07:59 10° NE
METEOR-M 4.1 09:03:09 10° N 09:08:28 71° WNW 09:11:50 23° SSW
SL-16 R/B 3.0 09:03:20 10° S 09:08:39 49° ESE 09:14:04 10° NE
Cosmos 1151 Rocket 3.4 09:07:55 37° WSW 09:08:47 42° WNW 09:12:54 10° N
Cosmos 1553 Rocket 4.1 09:04:11 10° N 09:10:30 80° E 09:16:40 10° S
CZ-2C R/B 2.5 09:05:21 10° NNE 09:10:33 89° WNW 09:14:38 17° SSW
PAYLOAD A 3.9 09:09:06 10° NNE 09:14:04 86° ESE 09:18:06 15° SSW
USA 308 3.9 09:12:46 20° S 09:14:38 32° SE 09:18:08 10° ENE
ADEOS II 3.7 09:13:07 10° NNW 09:16:29 18° WNW 09:17:38 16° WNW
Cosmos 1624 Rocket 4.2 09:11:20 10° NNW 09:16:34 74° ENE 09:21:45 10° SSE
Cosmos 1340 2.4 09:16:04 10° N 09:19:30 85° E 09:22:55 10° S
Cosmos 921 Rocket 2.9 09:16:43 21° SSW 09:19:31 89° ESE 09:23:51 10° NNE
Cosmos 1626 2.0 09:18:47 16° S 09:21:17 68° E 09:24:35 10° NNE
Cosmos 1975 2.6 09:18:41 10° NNW 09:22:32 69° W 09:26:22 10° S
Intercosmos 25 Rocket 3.4 09:20:39 10° NNW 09:24:10 70° W 09:29:18 10° S
Cosmos 1515 Rocket 4.5 09:20:00 10° SSE 09:24:17 51° E 09:28:36 10° NNE
ATLAS 5 CENTAUR R/B 3.6 09:24:47 10° NNW 09:29:31 40° NE 09:35:16 10° ESE
Cosmos 1470 Rocket 3.9 09:26:06 10° N 09:30:30 69° E 09:34:54 10° SSE
Meteor 2-12 Rocket 4.4 09:24:51 10° S 09:30:53 80° W 09:36:58 10° N
NOSS 7 (E) 4.4 09:28:04 10° NW 09:31:17 66° SW 09:35:17 10° SSE
Envisat 3.4 09:26:35 10° N 09:31:23 44° WNW 09:34:51 18° SW
Cosmos 1484 Rocket 3.9 09:28:38 10° NNE 09:32:02 39° E 09:35:24 10° S
BREEZE-M DEB (TANK) 2.6 09:34:04 18° WSW 09:37:53 56° NNW 09:40:22 10° NE
SL-16 R/B 3.8 09:36:56 17° WSW 09:38:02 18° W 09:42:02 10° NW
Cosmos 1666 Rocket 4.0 09:39:45 10° NNW 09:43:56 41° W 09:48:04 10° SSW
Meteor 1-18 Rocket 4.4 09:39:37 10° SSW 09:45:06 55° WNW 09:50:43 10° N
Cosmos 1371 Rocket 4.0 09:40:18 10° NNW 09:45:27 59° WSW 09:50:37 10° S
Thor Agena Rocket 4.0 09:44:23 10° N 09:49:07 42° WNW 09:53:50 10° SW
Cosmos 1066 Rocket 4.1 09:44:42 10° SSW 09:50:02 76° W 09:55:31 10° N
Cosmos 1943 Rocket 2.6 09:45:55 10° NW 09:51:09 40° WSW 09:56:23 10° S
YAOGAN 6 3.5 09:48:25 10° NNW 09:51:10 25° WNW 09:53:02 15° WSW
H-2A R/B 2.3 09:48:08 10° NNE 09:53:08 70° ESE 09:58:14 10° S
Meteor 2-4 Rocket 4.2 09:48:37 11° SW 09:53:24 38° WNW 09:58:31 10° N
USA 290 2.4 09:52:52 10° NNW 09:55:57 71° ENE 09:59:00 10° SSE
BlueWalker 3 1.9 09:52:47 10° WNW 09:56:35 61° SW 10:00:20 10° SE
Cosmos 1842 3.3 09:53:35 10° S 09:57:17 75° E 10:01:03 10° NNE
Cosmos 1933 Rocket 3.9 09:53:28 10° N 09:57:50 70° E 10:02:08 10° SSE
Cosmos 2297 4.1 09:56:23 10° NNW 10:02:09 72° ENE 10:07:52 10° SSE
Cosmos 2237 Rocket 3.7 09:58:31 11° W 10:02:34 21° NW 10:06:51 10° N
Lacrosse 5 4.3 10:05:07 10° NNW 10:07:48 14° N 10:10:27 10° NNE
Cosmos 2369 Rocket 2.8 10:05:08 10° NNW 10:10:43 62° ENE 10:16:13 10° SE
ATLAS 2AS CENTAUR R/B 3.1 10:08:01 10° SW 10:15:18 55° NW 10:22:20 10° NNE
Cosmos 1707 2.5 10:14:24 10° S 10:18:03 82° W 10:21:45 10° N
Cosmos 883 Rocket 4.4 10:13:42 10° N 10:19:49 76° W 10:25:54 10° S
S3M 4.2 10:17:13 10° NNW 10:23:09 52° W 10:29:09 10° SSW
BREEZE-M DEB (TANK) 4.1 10:07:26 10° WNW 10:25:14 77° SW 10:29:48 10° SE
